| time (UTC) | temp F | wind direction | speed MPH | gust MPH | rain 1hr in | rain 24hr in | rain mn in | humidity % | barometer mb |
| 20260906222415 | 75 | 341 | 8.0 | 11.0 | 0.00 | 0.08 | 0.00 | 37 | 1028.0 |
| 20260906221514 | 75 | 352 | 5.0 | 11.0 | 0.00 | 0.08 | 0.00 | 38 | 1028.2 |
| 20260906220516 | 74 | 3 | 2.0 | 7.0 | 0.00 | 0.08 | 0.00 | 37 | 1028.1 |
| 20260906215516 | 74 | 353 | 3.0 | 6.0 | 0.00 | 0.08 | 0.00 | 37 | 1028.1 |
| 20260906214615 | 74 | 50 | 5.0 | 10.0 | 0.00 | 0.08 | 0.00 | 37 | 1028.4 |
| 20260906213618 | 75 | 15 | 4.0 | 9.0 | 0.00 | 0.08 | 0.00 | 36 | 1028.5 |
| 20260906212716 | 75 | 15 | 6.0 | 12.0 | 0.00 | 0.08 | 0.00 | 35 | 1028.4 |
| 20260906211716 | 75 | 343 | 6.0 | 11.0 | 0.00 | 0.08 | 0.00 | 35 | 1028.4 |
| 20260906210816 | 75 | 351 | 5.0 | 8.0 | 0.00 | 0.08 | 0.00 | 34 | 1028.6 |
| 20260906205817 | 75 | 337 | 4.0 | 9.0 | 0.00 | 0.08 | 0.00 | 34 | 1028.5 |
| 20260906204914 | 75 | 331 | 8.0 | 12.0 | 0.00 | 0.08 | 0.00 | 33 | 1028.6 |
| 20260906203916 | 75 | 1 | 5.0 | 9.0 | 0.00 | 0.08 | 0.00 | 33 | 1019.9 |
| 20260906203015 | 77 | 360 | 6.0 | 10.0 | 0.00 | 0.08 | 0.00 | 32 | 1028.9 |
| 20260906202113 | 77 | 4 | 3.0 | 6.0 | 0.00 | 0.08 | 0.00 | 32 | 1028.6 |
| 20260906201114 | 77 | 18 | 5.0 | 10.0 | 0.00 | 0.08 | 0.00 | 30 | 1028.8 |
| 20260906194115 | 83 | 353 | 5.0 | 12.0 | 0.00 | 0.08 | 0.00 | 25 | 1028.5 |
| 20260906193116 | 84 | 19 | 5.0 | 8.0 | 0.00 | 0.08 | 0.00 | 22 | 1028.6 |
| 20260906190116 | 82 | 223 | 0.0 | 2.0 | 0.00 | 0.08 | 0.00 | 16 | 1029.0 |
| 20260906185115 | 82 | 37 | 2.0 | 4.0 | 0.00 | 0.08 | 0.00 | 16 | 1029.4 |
| 20260906184213 | 82 | 118 | 5.0 | 7.0 | 0.00 | 0.08 | 0.00 | 17 | 1029.2 |
| 20260906183215 | 82 | 344 | 3.0 | 4.0 | 0.00 | 0.08 | 0.00 | 17 | 1029.3 |
| 20260906181314 | 83 | 160 | 4.0 | 7.0 | 0.00 | 0.08 | 0.00 | 19 | 1029.9 |
| 20260906180314 | 83 | 132 | 2.0 | 4.0 | 0.00 | 0.08 | 0.00 | 21 | 1030.0 |
| 20260906174315 | 81 | 183 | 2.0 | 4.0 | 0.00 | 0.08 | 0.00 | 23 | 1030.4 |
| 20260906173315 | 81 | 164 | 3.0 | 4.0 | 0.00 | 0.08 | 0.00 | 24 | 1030.5 |
| 20260906172316 | 80 | 180 | 2.0 | 5.0 | 0.00 | 0.08 | 0.00 | 28 | 1030.9 |
| 20260906171315 | 79 | 328 | 2.0 | 4.0 | 0.00 | 0.08 | 0.00 | 29 | 1030.9 |
| 20260906170317 | 79 | 22 | 2.0 | 7.0 | 0.00 | 0.08 | 0.00 | 30 | 1031.1 |
| 20260906165414 | 78 | 336 | 2.0 | 6.0 | 0.00 | 0.08 | 0.00 | 30 | 1031.3 |
| 20260906164416 | 77 | 337 | 2.0 | 4.0 | 0.00 | 0.08 | 0.00 | 32 | 1031.3 |
| 20260906163416 | 75 | 41 | 2.0 | 4.0 | 0.00 | 0.08 | 0.00 | 36 | 1031.5 |
| 20260906162415 | 73 | 95 | 1.0 | 5.0 | 0.00 | 0.08 | 0.00 | 39 | 1031.6 |
| 20260906161414 | 71 | 12 | 0.0 | 1.0 | 0.00 | 0.08 | 0.00 | 43 | 1031.6 |
| 20260906160414 | 70 | 90 | 1.0 | 3.0 | 0.00 | 0.08 | 0.00 | 48 | 1031.7 |
| 20260906155513 | 67 | 112 | 0.0 | 0.0 | 0.00 | 0.08 | 0.00 | 51 | 1031.7 |
| 20260906154532 | 64 | 90 | 0.0 | 0.0 | 0.00 | 0.08 | 0.00 | 56 | 1031.9 |
| 20260906153614 | 61 | 90 | 2.0 | 3.0 | 0.00 | 0.08 | 0.00 | 62 | 1031.7 |
| 20260906152616 | 59 | 67 | 0.0 | 0.0 | 0.00 | 0.08 | 0.00 | 64 | 1032.1 |
| 20260906150715 | 55 | 9 | 0.0 | 1.0 | 0.00 | 0.08 | 0.00 | 78 | 1032.2 |
| 20260906145716 | 52 | 360 | 0.0 | 0.0 | 0.00 | 0.08 | 0.00 | 77 | 1032.2 |
| 20260906144715 | 53 | 360 | 0.0 | 1.0 | 0.00 | 0.08 | 0.00 | 74 | 1032.3 |
| 20260906142913 | 54 | 67 | 0.0 | 0.0 | 0.00 | 0.08 | 0.00 | 69 | 1032.3 |
| 20260906140916 | 55 | 165 | 2.0 | 5.0 | 0.00 | 0.08 | 0.00 | 68 | 1032.4 |
| 20260906135915 | 54 | 179 | 2.0 | 2.0 | 0.00 | 0.08 | 0.00 | 68 | 1032.3 |
| 20260906134915 | 55 | 247 | 0.0 | 0.0 | 0.00 | 0.08 | 0.00 | 68 | 1032.2 |
| 20260906134013 | 54 | 190 | 4.0 | 6.0 | 0.00 | 0.08 | 0.00 | 68 | 1032.3 |
| 20260906133015 | 53 | 206 | 2.0 | 4.0 | 0.00 | 0.08 | 0.00 | 69 | 1032.2 |
| 20260906132013 | 53 | 202 | 4.0 | 7.0 | 0.00 | 0.08 | 0.00 | 71 | 1032.1 |
| 20260906131016 | 52 | 197 | 4.0 | 8.0 | 0.00 | 0.08 | 0.00 | 72 | 1032.3 |
| 20260906130016 | 52 | 196 | 3.0 | 5.0 | 0.00 | 0.08 | 0.00 | 72 | 1032.0 |
| 20260906125015 | 52 | 180 | 3.0 | 4.0 | 0.00 | 0.08 | 0.00 | 72 | 1031.9 |
| 20260906123015 | 53 | 216 | 1.0 | 4.0 | 0.00 | 0.08 | 0.00 | 73 | 1031.8 |
| 20260906122015 | 52 | 247 | 0.0 | 0.0 | 0.00 | 0.08 | 0.00 | 72 | 1031.7 |
| 20260906120114 | 53 | 180 | 0.0 | 0.0 | 0.00 | 0.08 | 0.00 | 71 | 1031.8 |
| 20260906115115 | 53 | 196 | 4.0 | 6.0 | 0.00 | 0.08 | 0.00 | 71 | 1032.1 |
| 20260906113116 | 53 | 199 | 2.0 | 4.0 | 0.00 | 0.08 | 0.00 | 72 | 1032.0 |
| 20260906110114 | 53 | 191 | 4.0 | 8.0 | 0.00 | 0.08 | 0.00 | 73 | 1032.2 |
| 20260906105115 | 53 | 175 | 4.0 | 6.0 | 0.00 | 0.08 | 0.00 | 74 | 1032.1 |
| 20260906102214 | 54 | 202 | 1.0 | 3.0 | 0.00 | 0.08 | 0.00 | 73 | 1032.2 |
| 20260906101214 | 54 | 190 | 2.0 | 4.0 | 0.00 | 0.08 | 0.00 | 73 | 1032.0 |
| 20260906100217 | 54 | 202 | 2.0 | 5.0 | 0.00 | 0.08 | 0.00 | 72 | 1032.1 |
| 20260906095215 | 53 | 181 | 2.0 | 4.0 | 0.00 | 0.08 | 0.00 | 72 | 1032.2 |
| 20260906094215 | 53 | 186 | 4.0 | 8.0 | 0.00 | 0.08 | 0.00 | 73 | 1032.1 |
| 20260906092314 | 54 | 175 | 4.0 | 7.0 | 0.00 | 0.08 | 0.00 | 72 | 1032.3 |
| 20260906091313 | 54 | 195 | 5.0 | 8.0 | 0.00 | 0.08 | 0.00 | 73 | 1032.5 |
| 20260906090315 | 53 | 192 | 5.0 | 8.0 | 0.00 | 0.08 | 0.00 | 73 | 1032.4 |
| 20260906085313 | 53 | 222 | 2.0 | 5.0 | 0.00 | 0.08 | 0.00 | 73 | 1032.4 |
| 20260906084332 | 53 | 159 | 5.0 | 7.0 | 0.00 | 0.08 | 0.00 | 73 | 1032.2 |
| 20260906082314 | 53 | 186 | 4.0 | 6.0 | 0.00 | 0.08 | 0.00 | 75 | 1032.6 |
| 20260906081313 | 53 | 164 | 5.0 | 7.0 | 0.00 | 0.08 | 0.00 | 76 | 1032.7 |
| 20260906075315 | 53 | 203 | 3.0 | 4.0 | 0.00 | 0.08 | 0.00 | 76 | 1032.8 |
| 20260906074317 | 53 | 167 | 2.0 | 4.0 | 0.00 | 0.08 | 0.00 | 77 | 1032.8 |
| 20260906072413 | 53 | 171 | 7.0 | 10.0 | 0.00 | 0.08 | 0.00 | 79 | 1032.8 |
| 20260906071414 | 52 | 159 | 5.0 | 7.0 | 0.00 | 0.08 | 0.00 | 79 | 1033.0 |
| 20260906070414 | 52 | 164 | 5.0 | 8.0 | 0.00 | 0.08 | 0.00 | 79 | 1032.8 |
| 20260906065415 | 53 | 176 | 4.0 | 9.0 | 0.00 | 0.08 | 0.00 | 80 | 1032.9 |
| 20260906064415 | 53 | 150 | 6.0 | 11.0 | 0.00 | 0.08 | 0.00 | 80 | 1032.9 |
| 20260906063513 | 53 | 156 | 4.0 | 7.0 | 0.00 | 0.08 | 0.00 | 80 | 1032.9 |
| 20260906062515 | 53 | 160 | 4.0 | 6.0 | 0.00 | 0.08 | 0.00 | 81 | 1032.9 |
| 20260906061612 | 53 | 166 | 5.0 | 8.0 | 0.00 | 0.08 | 0.00 | 81 | 1033.0 |
| 20260906060613 | 53 | 197 | 1.0 | 3.0 | 0.00 | 0.08 | 0.00 | 83 | 1033.1 |
| 20260906055619 | 53 | 184 | 2.0 | 4.0 | 0.00 | 0.08 | 0.08 | 84 | 1033.0 |
| 20260906054620 | 53 | 204 | 1.0 | 3.0 | 0.00 | 0.08 | 0.08 | 84 | 1033.0 |
| 20260906053637 | 53 | 157 | 4.0 | 5.0 | 0.01 | 0.08 | 0.08 | 85 | 1033.3 |
| 20260906052622 | 54 | 180 | 0.0 | 0.0 | 0.03 | 0.08 | 0.08 | 83 | 1033.4 |
| 20260906051623 | 54 | 202 | 0.0 | 0.0 | 0.03 | 0.08 | 0.08 | 82 | 1033.4 |
| 20260906050622 | 55 | 202 | 0.0 | 0.0 | 0.03 | 0.08 | 0.08 | 81 | 1033.7 |
| 20260906045621 | 55 | 183 | 1.0 | 4.0 | 0.03 | 0.08 | 0.08 | 78 | 1033.7 |
| 20260906044720 | 56 | 165 | 4.0 | 6.0 | 0.03 | 0.08 | 0.08 | 75 | 1033.7 |
| 20260906043722 | 58 | 173 | 3.0 | 6.0 | 0.03 | 0.08 | 0.07 | 70 | 1033.9 |
| 20260906042723 | 58 | 169 | 9.0 | 15.0 | 0.01 | 0.06 | 0.05 | 70 | 1034.0 |
| 20260906041738 | 57 | 184 | 3.0 | 5.0 | 0.00 | 0.05 | 0.05 | 72 | 1033.8 |
| 20260906040721 | 57 | 183 | 9.0 | 12.0 | 0.00 | 0.05 | 0.05 | 73 | 1033.9 |
| 20260906034821 | 56 | 168 | 3.0 | 5.0 | 0.01 | 0.05 | 0.05 | 79 | 1033.8 |
| 20260906033920 | 56 | 172 | 3.0 | 4.0 | 0.01 | 0.05 | 0.05 | 78 | 1033.9 |
| 20260906032921 | 56 | 180 | 2.0 | 3.0 | 0.01 | 0.05 | 0.05 | 75 | 1034.2 |
| 20260906031921 | 57 | 202 | 1.0 | 2.0 | 0.01 | 0.05 | 0.05 | 72 | 1034.0 |
| 20260906030922 | 57 | 195 | 7.0 | 11.0 | 0.01 | 0.05 | 0.05 | 73 | 1034.1 |
| 20260906025921 | 59 | 189 | 3.0 | 5.0 | 0.02 | 0.05 | 0.05 | 66 | 1034.0 |
| 20260906024922 | 57 | 145 | 12.0 | 19.0 | 0.01 | 0.04 | 0.04 | 73 | 1033.0 |
| 20260906023921 | 56 | 247 | 1.0 | 2.0 | 0.01 | 0.04 | 0.04 | 79 | 1032.2 |
| 20260906022920 | 56 | 225 | 0.0 | 0.0 | 0.01 | 0.04 | 0.04 | 79 | 1031.9 |
| 20260906021920 | 56 | 202 | 0.0 | 1.0 | 0.01 | 0.04 | 0.04 | 79 | 1031.9 |
| 20260906020922 | 55 | 180 | 0.0 | 3.0 | 0.01 | 0.04 | 0.04 | 81 | 1031.8 |
| 20260906020019 | 55 | 225 | 0.0 | 1.0 | 0.00 | 0.03 | 0.03 | 82 | 1031.6 |
| 20260906015021 | 56 | 225 | 0.0 | 1.0 | 0.00 | 0.03 | 0.03 | 81 | 1031.5 |
| 20260906014020 | 57 | 180 | 0.0 | 0.0 | 0.00 | 0.03 | 0.03 | 80 | 1031.6 |
| 20260906013039 | 57 | 176 | 1.0 | 4.0 | 0.02 | 0.03 | 0.03 | 81 | 1031.3 |
| 20260906012120 | 57 | 202 | 0.0 | 4.0 | 0.03 | 0.03 | 0.03 | 79 | 1031.6 |
| 20260906011119 | 58 | 202 | 1.0 | 2.0 | 0.03 | 0.03 | 0.03 | 80 | 1031.8 |
| 20260906010122 | 59 | 165 | 2.0 | 4.0 | 0.03 | 0.03 | 0.03 | 76 | 1031.5 |
| 20260906005120 | 60 | 202 | 1.0 | 4.0 | 0.03 | 0.03 | 0.03 | 73 | 1031.6 |
| 20260906004121 | 64 | 360 | 0.0 | 0.0 | 0.03 | 0.03 | 0.03 | 63 | 1031.6 |
| 20260906003121 | 68 | 360 | 0.0 | 0.0 | 0.01 | 0.01 | 0.01 | 45 | 1031.3 |
| 20260906002121 | 69 | 22 | 1.0 | 4.0 | 0.00 | 0.00 | 0.00 | 38 | 1031.1 |
| 20260906001136 | 70 | 5 | 1.0 | 2.0 | 0.00 | 0.00 | 0.00 | 36 | 1030.8 |
| 20260906000235 | 71 | 50 | 0.0 | 2.0 | 0.00 | 0.00 | 0.00 | 33 | 1030.6 |
| 20260905235323 | 71 | 69 | 1.0 | 3.0 | 0.00 | 0.00 | 0.00 | 33 | 1030.4 |
| 20260905233320 | 72 | 90 | 0.0 | 2.0 | 0.00 | 0.00 | 0.00 | 31 | 1030.4 |
| 20260905231321 | 72 | 90 | 1.0 | 5.0 | 0.00 | 0.00 | 0.00 | 32 | 1030.5 |
| 20260905230320 | 72 | 350 | 3.0 | 6.0 | 0.00 | 0.00 | 0.00 | 30 | 1030.3 |
| 20260905225320 | 73 | 21 | 3.0 | 7.0 | 0.00 | 0.00 | 0.00 | 30 | 1030.3 |
| 20260905224320 | 74 | 336 | 2.0 | 6.0 | 0.00 | 0.00 | 0.00 | 29 | 1030.0 |
| 20260905223323 | 75 | 316 | 0.0 | 3.0 | 0.00 | 0.00 | 0.00 | 29 | 1030.1 |